Location: Brno
(49.2000°N, 16.6330°E)
Time: 10:18:59
(UTC+02:00)

ISS - Pass Details

Date: 27 May 2021
Orbit: 417 x 422 km, 51.6° (Epoch: 13 June)

Event Time Altitude Azimuth Distance (km) Brightness Sun altitude
Rises 22:14:35 0° 290° (WNW) 2,367 1.1 -11.3°
Reaches altitude 10° 22:16:42 10° 286° (WNW) 1,502 -0.1 -11.5°
Maximum altitude 22:20:01 56° 207° (SSW) 506 -3.5 -11.8°
Enters shadow 22:22:05 20° 135° (SE) 1,020 -2.4 -12.0°
